1507474800.01,29096,11.06,72946.8,-3.49,-4.53,-4.73,0,*58
1507474801.25,29097,11.06,72944.0,-3.49,-4.69,-4.81,0,*5D
1507474802.49,29098,11.06,72942.8,-3.47,-4.65,-4.73,0,*5D
1507474803.72,29099,11.06,72932.8,-3.49,-4.57,-4.69,0,*58
1507474804.92,29100,11.06,72948.3,-3.49,-4.65,-4.65,0,*54
1507474806.14,29101,11.06,72944.3,-3.49,-4.65,-4.77,0,*56
1507474807.36,29102,11.06,72940.3,-3.49,-4.57,-4.77,0,*54
1507474808.59,29103,11.06,72942.5,-3.49,-4.65,-4.89,0,*55
1507474809.85,29104,11.06,72944.5,-3.47,-4.69,-4.85,0,*5C
1507474811.09,29105,11.06,72942.5,-3.49,-4.69,-4.81,0,*57
1507474812.35,29106,11.06,72942.8,-3.47,-4.77,-4.85,0,*51
1507474813.59,29107,11.06,72942.0,-3.49,-4.77,-4.93,0,*59
1507474814.84,29108,11.06,72940.3,-3.49,-4.81,-5.03,0,*57
1507474816.08,29109,11.06,72946.0,-3.49,-4.77,-4.93,0,*57
1507474817.3,29110,11.06,72936.8,-3.49,-4.57,-4.69,0,*58
1507474818.55,29111,11.06,72936.3,-3.51,-4.65,-4.77,0,*5E
1507474819.8,29112,11.06,72936.0,-3.51,-4.65,-4.89,0,*5C
1507474821.07,29113,11.06,72934.0,-3.51,-4.69,-4.77,0,*50
1507474822.33,29114,11.06,72936.8,-3.51,-4.69,-4.89,0,*56
1507474823.6,29115,11.06,72936.3,-3.51,-4.69,-4.81,0,*5F
1507474824.87,29116,11.06,72936.3,-3.51,-4.69,-4.89,0,*54
1507474826.12,29117,11.06,72936.0,-3.53,-4.73,-4.93,0,*57
1507474827.38,29118,11.06,72938.5,-3.51,-4.69,-4.81,0,*52
1507474828.63,29119,11.06,72936.5,-3.53,-4.73,-4.85,0,*5E
1507474829.9,29120,11.06,72936.0,-3.51,-4.77,-4.81,0,*56
1507474831.16,29121,11.06,72938.3,-3.51,-4.69,-4.89,0,*50
1507474832.43,29122,11.06,72942.3,-3.51,-4.77,-4.93,0,*57
1507474833.7,29123,11.06,72942.5,-3.51,-4.77,-4.89,0,*5D
1507474834.96,29124,11.06,72942.8,-3.51,-4.77,-4.77,0,*5B
1507474836.21,29125,11.06,72940.3,-3.53,-4.73,-4.81,0,*55
1507474837.43,29126,11.06,72942.5,-3.53,-4.61,-4.73,0,*58
1507474838.68,29127,11.06,72944.0,-3.53,-4.69,-4.81,0,*5C
1507474839.9,29128,11.06,72940.5,-3.53,-4.61,-4.73,0,*56
1507474841.1,29129,11.06,72924.3,-3.53,-4.57,-4.61,0,*51
1507474842.32,29130,11.06,72926.3,-3.51,-4.41,-4.45,0,*5A
1507474843.54,29131,11.06,72936.0,-3.51,-4.53,-4.65,0,*5A
1507474844.77,29132,11.06,72936.3,-3.51,-4.53,-4.57,0,*58
1507474845.99,29133,11.06,72940.3,-3.51,-4.53,-4.53,0,*5D
1507474847.22,29134,11.06,72932.3,-3.53,-4.57,-4.69,0,*55
1507474848.44,29135,11.06,72934.8,-3.51,-4.45,-4.65,0,*59
1507474849.67,29136,11.06,72934.5,-3.51,-4.33,-4.53,0,*5E
1507474850.89,29137,11.06,72934.8,-3.51,-4.45,-4.57,0,*5A
1507474852.08,29138,11.06,72938.0,-3.49,-4.41,-4.45,0,*5B
1507474853.3,29139,11.06,72940.0,-3.51,-4.41,-4.53,0,*54
1507474854.53,29140,11.06,72940.5,-3.51,-4.41,-4.53,0,*5A
1507474855.75,29141,11.06,72936.8,-3.51,-4.41,-4.53,0,*5B
1507474856.98,29142,11.06,72942.0,-3.51,-4.41,-4.53,0,*58
1507474858.2,29143,11.0,72928.3,-3.51,-4.41,-4.53,0,*59
1507474859.4,29144,11.06,72938.3,-3.49,-4.41,-4.53,0,*57
1507474860.63,29145,11.06,72940.0,-3.51,-4.33,-4.45,0,*5D
1507474861.82,29146,11.06,72936.5,-3.53,-4.37,-4.45,0,*58
1507474863.04,29147,11.06,72946.8,-3.51,-4.33,-4.33,0,*5E
1507474864.27,29148,11.06,72942.8,-3.51,-4.33,-4.53,0,*57
1507474865.49,29149,11.06,72942.5,-3.51,-4.41,-4.45,0,*54
1507474866.68,29150,11.06,72942.5,-3.49,-4.41,-4.45,0,*55
1507474867.9,29151,11.06,72940.8,-3.47,-4.29,-4.41,0,*50
1507474869.13,29152,11.06,72948.3,-3.51,-4.33,-4.33,0,*5A
1507474870.35,29153,11.06,72948.3,-3.51,-4.29,-4.33,0,*50
1507474871.55,29154,11.06,72946.0,-3.49,-4.29,-4.41,0,*5B
1507474872.74,29155,11.06,72948.0,-3.49,-4.41,-4.45,0,*50
1507474873.93,29156,11.06,72948.0,-3.49,-4.41,-4.45,0,*53
1507474875.13,29157,11.06,72940.5,-3.49,-4.41,-4.53,0,*55
1507474876.33,29158,11.06,72950.5,-3.49,-4.37,-4.53,0,*5B
1507474877.52,29159,11.06,72952.0,-3.49,-4.45,-4.65,0,*5A
1507474878.72,29160,11.06,72950.0,-3.49,-4.53,-4.57,0,*56
1507474879.94,29161,11.06,72948.0,-3.51,-4.45,-4.57,0,*59
1507474881.18,29162,11.06,72944.0,-3.51,-4.45,-4.69,0,*57
1507474882.43,29163,11.06,72944.0,-3.51,-4.57,-4.69,0,*55
1507474883.66,29164,11.06,72950.3,-3.51,-4.53,-4.65,0,*5A
1507474884.88,29165,11.06,72950.0,-3.51,-4.53,-4.57,0,*5A
1507474886.1,29166,11.06,72950.0,-3.51,-4.53,-4.57,0,*59
1507474887.33,29167,11.06,72948.3,-3.51,-4.53,-4.57,0,*58
1507474888.54,29168,11.06,72946.8,-3.51,-4.45,-4.57,0,*50
1507474889.77,29169,11.06,72948.3,-3.51,-4.41,-4.57,0,*55
1507474890.96,29170,11.06,72944.3,-3.53,-4.45,-4.49,0,*54
1507474892.18,29171,11.06,72948.0,-3.51,-4.45,-4.57,0,*58
1507474893.4,29172,11.06,72962.0,-3.51,-4.53,-4.65,0,*5D
1507474894.63,29173,11.06,72952.8,-3.51,-4.41,-4.57,0,*5E
1507474895.85,29174,11.06,72934.8,-3.51,-4.41,-4.53,0,*5D
1507474897.08,29175,11.06,72930.5,-3.51,-4.33,-4.45,0,*5E
1507474898.27,29176,11.0,72934.0,-3.49,-4.41,-4.41,0,*55
1507474899.47,29177,11.0,72930.3,-3.49,-4.33,-4.41,0,*51
1507474900.67,29178,11.06,72936.0,-3.49,-4.41,-4.53,0,*58
1507474901.87,29179,11.06,72930.3,-3.49,-4.41,-4.57,0,*5D
1507474903.09,29180,11.06,72940.0,-3.51,-4.45,-4.57,0,*56
1507474904.32,29181,11.06,72940.5,-3.51,-4.41,-4.57,0,*53
1507474905.52,29182,11.06,72940.5,-3.49,-4.33,-4.53,0,*58
1507474906.72,29183,11.06,72942.3,-3.49,-4.41,-4.53,0,*5C
1507474907.91,29184,11.06,72940.8,-3.49,-4.45,-4.45,0,*58
1507474909.13,29185,11.06,72938.8,-3.51,-4.41,-4.45,0,*54
1507474910.33,29186,11.06,72936.8,-3.49,-4.41,-4.53,0,*59
1507474911.54,29187,11.06,72942.8,-3.51,-4.45,-4.57,0,*51
1507474912.77,29188,11.06,72940.5,-3.51,-4.53,-4.65,0,*58
1507474913.99,29189,11.06,72936.3,-3.51,-4.53,-4.57,0,*58
1507474915.21,29190,11.0,72936.0,-3.51,-4.53,-4.57,0,*50
1507474916.43,29191,11.06,72942.3,-3.51,-4.45,-4.57,0,*56
1507474917.66,29192,11.0,72940.5,-3.51,-4.53,-4.57,0,*52
1507474918.88,29193,11.06,72940.5,-3.51,-4.53,-4.65,0,*52
1507474920.1,29194,11.06,72936.8,-3.51,-4.53,-4.65,0,*55
1507474921.33,29195,11.06,72930.5,-3.49,-4.65,-4.69,0,*54
1507474922.55,29196,11.06,72934.0,-3.51,-4.57,-4.65,0,*53
1507474923.77,29197,11.06,72934.8,-3.51,-4.45,-4.57,0,*50
1507474925.0,29198,11.06,72938.5,-3.51,-4.41,-4.57,0,*5B
1507474926.22,29199,11.06,72942.3,-3.51,-4.41,-4.57,0,*5A
1507474927.46,29200,11.06,72942.8,-3.51,-4.33,-4.57,0,*5C
1507474928.67,29201,11.06,72940.0,-3.51,-4.41,-4.45,0,*5B
1507474929.87,29202,11.06,72942.5,-3.49,-4.41,-4.45,0,*51
1507474931.09,29203,11.06,72944.5,-3.51,-4.41,-4.53,0,*5E
1507474932.29,29204,11.06,72942.8,-3.53,-4.37,-4.49,0,*51
1507474933.49,29205,11.06,72940.3,-3.49,-4.33,-4.41,0,*57
1507474934.71,29206,11.0,72942.8,-3.51,-4.33,-4.41,0,*5D
1507474935.91,29207,11.06,72946.8,-3.53,-4.37,-4.49,0,*52
1507474937.13,29208,11.06,72950.3,-3.51,-4.33,-4.45,0,*57
1507474938.36,29209,11.06,72958.5,-3.51,-4.33,-4.41,0,*52
1507474939.58,29210,11.06,72954.5,-3.51,-4.33,-4.41,0,*5A
1507474940.81,29211,11.06,72954.5,-3.51,-4.29,-4.33,0,*55
1507474942.03,29212,11.06,72954.3,-3.51,-4.29,-4.41,0,*53
1507474943.26,29213,11.06,72948.8,-3.51,-4.29,-4.41,0,*52
1507474944.49,29214,11.06,72952.8,-3.51,-4.33,-4.53,0,*5D
1507474945.68,29215,11.06,72952.5,-3.49,-4.33,-4.45,0,*52
1507474946.88,29216,11.06,72956.5,-3.49,-4.41,-4.53,0,*53
1507474948.08,29217,11.06,72950.3,-3.49,-4.41,-4.53,0,*52
1507474949.27,29218,11.06,72946.5,-3.49,-4.45,-4.57,0,*5D
1507474950.49,29219,11.06,72944.8,-3.47,-4.29,-4.41,0,*5F
1507474951.69,29220,11.06,72950.5,-3.49,-4.33,-4.45,0,*54
1507474952.89,29221,11.0,72946.3,-3.49,-4.29,-4.41,0,*5A
1507474954.08,29222,11.06,72952.8,-3.49,-4.29,-4.41,0,*59
1507474955.28,29223,11.06,72950.5,-3.49,-4.53,-4.57,0,*52
1507474956.48,29224,11.06,72950.0,-3.49,-4.45,-4.65,0,*53
1507474957.67,29225,11.06,72950.5,-3.49,-4.45,-4.65,0,*52
1507474958.89,29226,11.0,72946.8,-3.49,-4.65,-4.77,0,*50
1507474960.14,29227,11.06,72948.0,-3.51,-4.65,-4.89,0,*59
1507474961.39,29228,11.06,72950.0,-3.51,-4.65,-4.81,0,*5E
1507474962.64,29229,11.06,72944.8,-3.51,-4.65,-4.89,0,*57
1507474963.91,29230,11.06,72948.3,-3.51,-4.69,-4.81,0,*5B
1507474965.15,29231,11.06,72954.8,-3.51,-4.65,-4.77,0,*5F
1507474966.41,29232,11.0,72948.3,-3.51,-4.57,-4.69,0,*52
1507474967.66,29233,11.0,72946.8,-3.51,-4.57,-4.69,0,*53
1507474968.88,29234,11.06,72952.3,-3.51,-4.45,-4.57,0,*5A
1507474970.12,29235,11.0,72940.8,-3.51,-4.53,-4.69,0,*51
1507474971.35,29236,11.06,72940.8,-3.53,-4.61,-4.73,0,*5A
1507474972.62,29237,11.0,72938.5,-3.51,-4.69,-4.81,0,*5C
1507474973.86,29238,11.0,72918.3,-3.53,-4.69,-4.81,0,*51
1507474975.11,29239,11.0,72908.8,-3.51,-4.57,-4.77,0,*56
1507474976.35,29240,11.06,72910.8,-3.53,-4.69,-4.81,0,*5E
1507474977.61,29241,11.0,72894.0,-3.51,-4.57,-4.69,0,*56
1507474978.86,29242,11.06,72910.5,-3.51,-4.65,-4.69,0,*54
1507474980.07,29243,11.06,72908.0,-3.51,-4.45,-4.57,0,*5A
1507474981.27,29244,11.0,72904.8,-3.53,-4.49,-4.61,0,*56
1507474982.49,29245,11.06,72902.8,-3.51,-4.45,-4.57,0,*5C
1507474983.72,29246,11.0,72896.0,-3.51,-4.41,-4.53,0,*5F
1507474984.92,29247,11.06,72918.3,-3.53,-4.49,-4.57,0,*50
1507474986.11,29248,11.06,72904.8,-3.53,-4.49,-4.61,0,*5A
1507474987.31,29249,11.06,72914.8,-3.53,-4.49,-4.61,0,*5B
1507474988.53,29250,11.06,72916.3,-3.51,-4.45,-4.53,0,*5C
1507474989.76,29251,11.0,72910.5,-3.53,-4.57,-4.69,0,*55
1507474990.98,29252,11.06,72912.8,-3.53,-4.61,-4.69,0,*53
1507474992.2,29253,11.06,72916.0,-3.51,-4.45,-4.65,0,*5A
1507474993.42,29254,11.06,72918.5,-3.51,-4.45,-4.53,0,*58
1507474994.62,29255,11.0,72924.0,-3.53,-4.37,-4.49,0,*55
1507474995.84,29256,11.0,72934.8,-3.51,-4.33,-4.45,0,*5C
1507474997.06,29257,11.06,72936.8,-3.51,-4.41,-4.41,0,*5C
1507474998.26,29258,11.0,72936.0,-3.53,-4.37,-4.33,0,*55
1507474999.48,29259,11.0,72946.3,-3.51,-4.33,-4.41,0,*57
1507475000.68,29260,11.06,72950.0,-3.53,-4.37,-4.37,0,*5A
1507475001.88,29261,11.06,72952.3,-3.53,-4.29,-4.37,0,*54
1507475003.11,29262,11.06,72954.0,-3.51,-4.29,-4.33,0,*51
1507475004.31,29263,11.06,72954.3,-3.53,-4.33,-4.37,0,*5D
1507475005.53,29264,11.06,72960.0,-3.51,-4.29,-4.33,0,*57
1507475006.76,29265,11.0,72956.0,-3.51,-4.29,-4.41,0,*53
1507475007.98,29266,11.0,72958.3,-3.51,-4.41,-4.45,0,*5A
1507475009.19,29267,11.0,72954.8,-3.51,-4.41,-4.45,0,*5B
1507475010.42,29268,11.0,72952.0,-3.51,-4.33,-4.45,0,*51
1507475011.64,29269,11.0,72948.3,-3.51,-4.33,-4.33,0,*51
1507475012.84,29270,11.06,72956.5,-3.53,-4.37,-4.37,0,*5B
1507475014.04,29271,11.06,72958.0,-3.49,-4.33,-4.33,0,*51
1507475015.24,29272,11.0,72956.0,-3.49,-4.33,-4.41,0,*57
1507475016.44,29273,11.0,72958.5,-3.49,-4.29,-4.33,0,*58
1507475017.64,29274,11.0,72962.5,-3.49,-4.29,-4.41,0,*5A
1507475018.83,29275,11.0,72956.8,-3.49,-4.41,-4.53,0,*56
1507475020.03,29276,11.0,72948.5,-3.49,-4.41,-4.53,0,*55
1507475021.23,29277,11.06,72946.3,-3.49,-4.45,-4.53,0,*50
1507475022.45,29278,11.06,72946.0,-3.51,-4.45,-4.57,0,*52
1507475023.67,29279,11.06,72944.0,-3.51,-4.45,-4.57,0,*53
1507475024.89,29280,11.06,72950.3,-3.51,-4.53,-4.57,0,*52
1507475026.11,29281,11.0,72946.8,-3.51,-4.45,-4.57,0,*54
1507475027.3,29282,11.0,72950.3,-3.49,-4.53,-4.65,0,*58
1507475028.52,29283,11.06,72958.8,-3.51,-4.45,-4.65,0,*57
1507475029.74,29284,11.0,72952.0,-3.51,-4.45,-4.65,0,*50
1507475030.96,29285,11.06,72956.5,-3.51,-4.45,-4.57,0,*50
1507475032.18,29286,11.06,72952.8,-3.51,-4.53,-4.65,0,*55
1507475033.44,29287,11.06,72952.0,-3.51,-4.57,-4.69,0,*5C
1507475034.69,29288,11.06,72950.0,-3.51,-4.57,-4.69,0,*53
1507475035.91,29289,11.0,72940.3,-3.51,-4.45,-4.65,0,*5D
1507475037.14,29290,11.0,72936.3,-3.51,-4.57,-4.65,0,*56
1507475038.38,29291,11.0,72936.0,-3.51,-4.65,-4.77,0,*55
1507475039.63,29292,11.06,72940.5,-3.53,-4.69,-4.81,0,*51
1507475040.87,29293,11.0,72936.3,-3.53,-4.69,-4.73,0,*5D
1507475042.11,29294,11.06,72952.0,-3.53,-4.69,-4.73,0,*5A
1507475043.36,29295,11.0,72932.0,-3.51,-4.65,-4.77,0,*51
1507475044.61,29296,11.0,72930.3,-3.51,-4.57,-4.69,0,*5C
1507475045.83,29297,11.06,72942.8,-3.51,-4.53,-4.65,0,*55
1507475047.06,29298,11.06,72942.8,-3.51,-4.57,-4.65,0,*5E
1507475048.29,29299,11.0,72940.8,-3.53,-4.61,-4.69,0,*54
1507475049.51,29300,11.0,72938.3,-3.53,-4.49,-4.69,0,*5F
1507475050.72,29301,11.06,72944.0,-3.53,-4.57,-4.57,0,*5C
1507475051.91,29302,11.06,72938.3,-3.53,-4.49,-4.57,0,*50
1507475053.14,29303,11.06,72942.0,-3.51,-4.41,-4.53,0,*5F
1507475054.33,29304,11.0,72944.0,-3.53,-4.37,-4.49,0,*50
1507475055.56,29305,11.0,72950.3,-3.51,-4.33,-4.33,0,*5A
1507475056.79,29306,11.0,72948.5,-3.51,-4.33,-4.41,0,*5C
1507475058.01,29307,11.0,72944.5,-3.51,-4.33,-4.41,0,*5D
1507475059.24,29308,11.06,72948.3,-3.51,-4.33,-4.41,0,*52
1507475060.47,29309,11.06,72952.8,-3.51,-4.33,-4.53,0,*50
1507475061.66,29310,11.06,72954.5,-3.53,-4.45,-4.53,0,*5B
1507475062.86,29311,11.06,72950.5,-3.49,-4.53,-4.65,0,*53
1507475064.11,29312,11.0,72952.5,-3.51,-4.65,-4.69,0,*50
1507475065.38,29313,11.0,72952.5,-3.51,-4.77,-4.89,0,*5C
1507475066.65,29314,11.06,72958.8,-3.51,-4.81,-4.93,0,*59
1507475067.89,29315,11.0,72954.0,-3.53,-4.73,-4.85,0,*50
1507475069.14,29316,11.0,72952.8,-3.53,-4.73,-4.85,0,*53
1507475070.39,29317,11.0,72954.3,-3.53,-4.73,-4.85,0,*52
1507475071.63,29318,11.0,72956.5,-3.53,-4.81,-4.93,0,*57
1507475072.88,29319,11.06,72958.0,-3.53,-4.81,-4.85,0,*51
1507475074.12,29320,11.06,72952.3,-3.53,-4.73,-4.93,0,*51
1507475075.37,29321,11.0,72942.8,-3.53,-4.81,-4.85,0,*5A
1507475076.61,29322,11.0,72946.0,-3.53,-4.73,-4.93,0,*53
1507475077.86,29323,11.06,72946.8,-3.53,-4.73,-4.85,0,*55
1507475079.11,29324,11.0,72948.5,-3.53,-4.69,-4.81,0,*5D
1507475080.32,29325,11.0,72942.8,-3.53,-4.73,-4.99,0,*5E
1507475081.56,29326,11.0,72942.0,-3.55,-4.81,-4.99,0,*56
1507475082.83,29327,11.0,72940.0,-3.55,-4.81,-4.85,0,*5A
1507475084.04,29328,11.06,72944.0,-3.57,-4.77,-4.99,0,*53
1507475085.26,29329,11.0,72942.5,-3.57,-4.89,-4.99,0,*53
1507475086.51,29330,11.0,72940.0,-3.53,-4.85,-4.93,0,*59
1507475087.73,29331,11.0,72946.0,-3.57,-4.99,-5.03,0,*59
1507475088.97,29332,11.0,72946.3,-3.55,-4.85,-4.99,0,*57
1507475090.21,29333,11.0,72944.5,-3.57,-4.85,-4.85,0,*59
1507475091.46,29334,11.0,72944.3,-3.57,-4.77,-4.89,0,*5F
1507475092.72,29335,11.0,72940.3,-3.55,-4.69,-4.73,0,*56
1507475093.94,29336,11.0,72948.8,-3.57,-4.65,-4.77,0,*5F
1507475095.19,29337,11.0,72946.0,-3.55,-4.61,-4.73,0,*5C
1507475096.42,29338,11.0,72940.0,-3.57,-4.65,-4.85,0,*5C
1507475097.64,29339,11.0,72938.5,-3.57,-4.65,-4.73,0,*54
1507475098.86,29340,11.0,72940.8,-3.57,-4.61,-4.73,0,*5E
1507475100.11,29341,11.0,72942.3,-3.55,-4.57,-4.73,0,*58
1507475101.31,29342,11.0,72932.5,-3.57,-4.53,-4.65,0,*5A
1507475102.53,29343,11.0,72938.5,-3.57,-4.53,-4.73,0,*5C
1507475103.73,29344,11.0,72940.3,-3.57,-4.65,-4.65,0,*59
1507475104.96,29345,11.0,72936.3,-3.57,-4.65,-4.73,0,*5F
1507475106.18,29346,11.0,72932.5,-3.55,-4.49,-4.61,0,*53
1507475107.38,29347,11.0,72936.5,-3.57,-4.61,-4.65,0,*5E
1507475108.6,29348,11.0,72930.8,-3.55,-4.57,-4.61,0,*52
1507475109.85,29349,11.0,72930.0,-3.55,-4.49,-4.69,0,*54
1507475111.05,29350,11.0,72938.3,-3.57,-4.53,-4.65,0,*59
1507475112.27,29351,11.0,72934.8,-3.55,-4.49,-4.61,0,*55
1507475113.48,29352,11.0,72938.3,-3.55,-4.49,-4.57,0,*53
1507475114.7,29353,11.0,72936.0,-3.55,-4.45,-4.49,0,*51
1507475115.91,29354,11.0,72936.5,-3.55,-4.37,-4.49,0,*53
1507475117.12,29355,11.0,72942.3,-3.55,-4.37,-4.45,0,*5E
1507475118.34,29356,11.0,72940.5,-3.55,-4.37,-4.49,0,*51
1507475119.56,29357,11.0,72934.0,-3.55,-4.37,-4.57,0,*5F
1507475120.77,29358,11.0,72940.8,-3.55,-4.45,-4.45,0,*56
1507475121.99,29359,11.06,72950.0,-3.55,-4.37,-4.57,0,*51
1507475123.23,29360,11.0,72944.0,-3.55,-4.57,-4.73,0,*5B
1507475124.5,29361,11.0,72942.0,-3.55,-4.69,-4.81,0,*5A
1507475125.76,29362,11.0,72942.3,-3.55,-4.69,-4.81,0,*59
1507475127.01,29363,11.0,72946.5,-3.55,-4.61,-4.73,0,*5D
1507475128.27,29364,11.0,72942.5,-3.55,-4.69,-4.81,0,*5F
1507475129.53,29365,11.0,72948.0,-3.55,-4.69,-4.93,0,*5D
1507475130.78,29366,11.0,72946.5,-3.57,-4.77,-4.89,0,*58
1507475132.04,29367,11.0,72950.3,-3.55,-4.69,-4.81,0,*5C
1507475133.31,29368,11.0,72948.3,-3.55,-4.73,-4.81,0,*58
1507475134.58,29369,11.0,72950.5,-3.55,-4.69,-4.81,0,*52
1507475135.82,29370,11.0,72952.8,-3.57,-4.73,-4.85,0,*57
1507475137.05,29371,11.0,72956.3,-3.57,-4.65,-4.85,0,*51
1507475138.31,29372,11.0,72952.3,-3.55,-4.69,-4.73,0,*55
1507475139.54,29373,11.0,72958.8,-3.57,-4.65,-4.77,0,*5E
1507475140.76,29374,11.0,72960.8,-3.57,-4.65,-4.77,0,*59
1507475142.01,29375,11.0,72966.3,-3.55,-4.57,-4.81,0,*52
1507475143.23,29376,11.0,72966.8,-3.57,-4.53,-4.73,0,*5A
1507475144.43,29377,11.0,72964.8,-3.57,-4.53,-4.65,0,*5C
1507475145.65,29378,11.0,72962.8,-3.55,-4.57,-4.49,0,*5B
1507475146.85,29379,11.0,72952.8,-3.53,-4.49,-4.61,0,*59
1507475148.07,29380,11.0,72946.8,-3.55,-4.49,-4.57,0,*5C
1507475149.28,29381,11.0,72946.0,-3.55,-4.45,-4.49,0,*5E
1507475150.49,29382,11.0,72938.5,-3.57,-4.41,-4.61,0,*51
1507475151.7,29383,11.0,72938.3,-3.55,-4.37,-4.45,0,*55
1507475152.92,29384,11.0,72938.3,-3.55,-4.37,-4.37,0,*57
1507475154.13,29385,11.0,72930.5,-3.55,-4.37,-4.37,0,*56
1507475155.35,29386,11.0,72934.5,-3.55,-4.37,-4.49,0,*5C
1507475156.54,29387,11.06,72934.5,-3.53,-4.45,-4.49,0,*5E
1507475157.76,29388,11.0,72930.3,-3.55,-4.37,-4.49,0,*52
1507475158.97,29389,11.0,72930.3,-3.55,-4.45,-4.57,0,*59
1507475160.19,29390,11.0,72934.8,-3.55,-4.37,-4.49,0,*5B
1507475161.41,29391,11.0,72940.0,-3.55,-4.37,-4.37,0,*53
1507475162.63,29392,11.0,72936.5,-3.55,-4.33,-4.37,0,*54
1507475163.85,29393,11.0,72944.3,-3.55,-4.33,-4.45,0,*50
1507475165.07,29394,11.0,72946.0,-3.55,-4.37,-4.57,0,*50
1507475166.29,29395,11.0,72948.0,-3.55,-4.45,-4.57,0,*54
1507475167.5,29396,11.0,72948.0,-3.55,-4.45,-4.57,0,*57
1507475168.72,29397,11.0,72946.3,-3.55,-4.45,-4.49,0,*59
1507475169.91,29398,11.0,72950.0,-3.57,-4.41,-4.49,0,*50
1507475171.13,29399,11.0,72956.0,-3.55,-4.37,-4.49,0,*52
1507475172.34,29400,11.0,72952.3,-3.55,-4.37,-4.49,0,*55
1507475173.56,29401,11.0,72956.5,-3.55,-4.45,-4.49,0,*51
1507475174.75,29402,11.0,72962.3,-3.53,-4.45,-4.49,0,*54
1507475175.97,29403,11.0,72964.3,-3.55,-4.37,-4.57,0,*59
1507475177.18,29404,11.0,72966.0,-3.55,-4.45,-4.57,0,*5B
1507475178.4,29405,11.0,72962.3,-3.55,-4.45,-4.57,0,*5A
1507475179.61,29406,11.0,72958.8,-3.55,-4.45,-4.49,0,*56
1507475180.81,29407,11.0,72962.5,-3.53,-4.37,-4.49,0,*54
1507475182.0,29408,11.0,72958.0,-3.53,-4.37,-4.45,0,*57
1507475183.2,29409,11.0,72960.3,-3.53,-4.61,-4.57,0,*56
1507475184.4,29410,11.0,72966.5,-3.53,-4.57,-4.61,0,*5E
1507475185.61,29411,11.0,72970.8,-3.53,-4.57,-4.61,0,*5F
1507475186.83,29412,11.0,72958.3,-3.55,-4.45,-4.57,0,*5C
1507475188.04,29413,11.0,72966.0,-3.55,-4.45,-4.61,0,*58
1507475189.27,29414,11.0,72964.0,-3.55,-4.57,-4.61,0,*5C
1507475190.48,29415,11.0,72956.3,-3.55,-4.49,-4.61,0,*52
1507475191.73,29416,11.0,72952.0,-3.55,-4.57,-4.69,0,*56
1507475192.95,29417,11.0,72948.0,-3.55,-4.49,-4.61,0,*50
1507475194.2,29418,11.0,72948.0,-3.55,-4.57,-4.69,0,*58
1507475195.45,29419,11.0,72926.3,-3.55,-4.57,-4.69,0,*59
1507475196.7,29420,11.0,72914.0,-3.55,-4.57,-4.73,0,*58
1507475197.94,29421,11.0,72912.3,-3.55,-4.61,-4.73,0,*5C
1507475199.19,29422,11.0,72906.0,-3.57,-4.73,-4.85,0,*57
1507475200.46,29423,11.0,72922.3,-3.55,-4.73,-4.81,0,*50
1507475201.72,29424,11.0,72932.0,-3.55,-4.69,-4.69,0,*5A
1507475202.95,29425,11.0,72926.0,-3.57,-4.73,-4.65,0,*5E
1507475204.17,29426,11.0,72924.3,-3.55,-4.57,-4.61,0,*5D
1507475205.37,29427,11.0,72922.3,-3.57,-4.53,-4.61,0,*5A
1507475206.58,29428,11.0,72920.5,-3.55,-4.45,-4.49,0,*5A
1507475207.78,29429,11.0,72924.0,-3.53,-4.49,-4.61,0,*5B
1507475209.01,29430,11.0,72928.8,-3.55,-4.57,-4.61,0,*5A
1507475210.21,29431,11.0,72936.8,-3.57,-4.61,-4.65,0,*58
1507475211.41,29432,11.0,72944.5,-3.57,-4.53,-4.65,0,*5A
1507475212.63,29433,11.0,72948.0,-3.55,-4.49,-4.61,0,*56
1507475213.84,29434,11.0,72948.3,-3.55,-4.49,-4.49,0,*5B
1507475215.06,29435,11.0,72948.3,-3.55,-4.49,-4.57,0,*55
1507475216.26,29436,11.0,72948.5,-3.57,-4.61,-4.61,0,*5B
1507475217.46,29437,11.0,72952.3,-3.57,-4.53,-4.65,0,*5F
1507475218.69,29438,11.0,72954.5,-3.55,-4.57,-4.61,0,*52
1507475219.89,29439,11.0,72952.5,-3.57,-4.61,-4.65,0,*50
1507475221.09,29440,11.0,72954.5,-3.57,-4.53,-4.49,0,*51
1507475222.3,29441,11.0,72954.5,-3.55,-4.37,-4.37,0,*59
1507475223.5,29442,11.0,72950.8,-3.57,-4.37,-4.37,0,*58
1507475224.72,29443,11.0,72946.0,-3.55,-4.37,-4.41,0,*5A
1507475225.93,29444,11.0,72944.3,-3.55,-4.45,-4.45,0,*5C
1507475227.15,29445,11.0,72940.3,-3.55,-4.49,-4.61,0,*57
1507475228.37,29446,11.0,72940.5,-3.55,-4.49,-4.57,0,*51
1507475229.58,29447,11.0,72946.3,-3.55,-4.45,-4.57,0,*5C
1507475230.78,29448,11.0,72944.3,-3.53,-4.61,-4.61,0,*56
1507475231.99,29449,11.0,72948.3,-3.55,-4.45,-4.49,0,*5D
1507475233.21,29450,11.0,72948.3,-3.55,-4.37,-4.45,0,*5C
1507475234.4,29451,11.0,72944.8,-3.57,-4.37,-4.41,0,*5B
1507475235.62,29452,11.0,72950.8,-3.55,-4.45,-4.37,0,*5E
1507475236.83,29453,11.0,72944.8,-3.55,-4.45,-4.45,0,*5A
1507475238.04,29454,11.0,72946.8,-3.55,-4.37,-4.45,0,*58
1507475239.26,29455,11.0,72946.3,-3.55,-4.29,-4.37,0,*53
1507475240.49,29456,11.0,72944.0,-3.55,-4.33,-4.37,0,*5B
1507475241.71,29457,11.0,72944.8,-3.55,-4.33,-4.37,0,*5A
1507475242.94,29458,11.0,72946.5,-3.55,-4.33,-4.37,0,*55
1507475244.16,29459,11.0,72946.5,-3.55,-4.33,-4.33,0,*50
1507475245.39,29460,11.06,72958.3,-3.55,-4.33,-4.37,0,*5E
1507475246.61,29461,11.0,72954.5,-3.55,-4.29,-4.33,0,*50
1507475247.83,29462,11.0,72958.3,-3.55,-4.33,-4.33,0,*58
1507475249.03,29463,11.0,72954.8,-3.53,-4.33,-4.37,0,*5B
1507475250.24,29464,11.0,72952.5,-3.53,-4.33,-4.37,0,*5C
1507475251.45,29465,11.0,72944.3,-3.53,-4.33,-4.37,0,*5D
1507475252.63,29466,11.0,72950.0,-3.53,-4.45,-4.45,0,*5A
1507475253.82,29467,11.0,72956.5,-3.53,-4.37,-4.45,0,*5E
1507475255.03,29468,11.0,72960.0,-3.53,-4.33,-4.37,0,*50
1507475256.26,29469,11.0,72956.5,-3.55,-4.33,-4.37,0,*57
1507475257.44,29470,11.0,72954.8,-3.53,-4.45,-4.45,0,*5D
1507475258.64,29471,11.0,72952.8,-3.53,-4.45,-4.61,0,*5A
1507475259.84,29472,11.0,72954.8,-3.53,-4.57,-4.57,0,*5F
1507475261.04,29473,11.0,72950.0,-3.53,-4.61,-4.61,0,*5E
1507475262.29,29474,11.0,72940.3,-3.55,-4.57,-4.69,0,*52
1507475263.5,29475,11.0,72940.0,-3.57,-4.61,-4.65,0,*58
1507475264.72,29476,11.0,72948.5,-3.55,-4.57,-4.61,0,*58
1507475265.95,29477,11.0,72936.0,-3.55,-4.57,-4.61,0,*59
1507475267.2,29478,11.0,72934.3,-3.55,-4.57,-4.69,0,*5E
1507475268.44,29479,11.0,72922.0,-3.55,-4.61,-4.69,0,*5A
1507475269.71,29480,11.0,72918.8,-3.55,-4.69,-4.81,0,*52
1507475270.95,29481,11.0,72940.0,-3.55,-4.61,-4.73,0,*56
1507475272.22,29482,11.0,72950.8,-3.55,-4.81,-4.81,0,*56
1507475273.46,29483,11.0,72954.8,-3.55,-4.61,-4.69,0,*5F
1507475274.69,29484,11.0,72952.8,-3.57,-4.61,-4.73,0,*51
1507475275.91,29485,11.0,72944.0,-3.57,-4.61,-4.77,0,*54
1507475277.16,29486,11.0,72934.3,-3.57,-4.69,-4.81,0,*56
1507475278.42,29487,11.0,72942.8,-3.55,-4.69,-4.73,0,*58
1507475279.67,29488,11.0,72940.0,-3.55,-4.57,-4.69,0,*51
1507475280.87,29489,11.0,72936.0,-3.57,-4.61,-4.65,0,*5B
1507475282.07,29490,11.0,72940.5,-3.57,-4.53,-4.61,0,*56
1507475283.27,29491,11.0,72932.5,-3.53,-4.49,-4.57,0,*5D
1507475284.48,29492,11.0,72924.8,-3.55,-4.45,-4.57,0,*54
1507475285.7,29493,11.0,72934.5,-3.55,-4.37,-4.49,0,*5F
1507475286.9,29494,11.0,72938.0,-3.57,-4.41,-4.53,0,*50
1507475288.12,29495,11.0,72940.3,-3.55,-4.45,-4.53,0,*57
1507475289.33,29496,11.0,72954.0,-3.55,-4.37,-4.49,0,*5A
1507475290.53,29497,11.0,72952.5,-3.57,-4.41,-4.41,0,*50
1507475291.73,29498,11.0,72952.3,-3.57,-4.37,-4.49,0,*56
1507475292.92,29499,11.0,72952.5,-3.57,-4.37,-4.49,0,*57
1507475294.14,29500,11.0,72952.5,-3.55,-4.37,-4.45,0,*58
1507475295.33,29501,11.0,72950.8,-3.57,-4.41,-4.49,0,*56
1507475296.55,29502,11.0,72956.8,-3.55,-4.37,-4.45,0,*5A
1507475297.76,29503,11.0,72958.0,-3.55,-4.37,-4.45,0,*5B
1507475298.97,29504,11.0,72968.8,-3.55,-4.37,-4.45,0,*5C
1507475300.17,29505,11.0,72952.8,-3.57,-4.41,-4.61,0,*58
1507475301.39,29506,11.0,72952.0,-3.55,-4.45,-4.57,0,*58
1507475302.6,29507,11.0,72958.5,-3.55,-4.45,-4.57,0,*59
1507475303.84,29508,11.0,72954.3,-3.55,-4.45,-4.69,0,*5B
1507475305.09,29509,11.0,72952.0,-3.55,-4.57,-4.69,0,*59
1507475306.31,29510,11.0,72954.5,-3.55,-4.49,-4.61,0,*56
1507475307.51,29511,11.0,72956.5,-3.57,-4.53,-4.65,0,*5A
1507475308.74,29512,11.0,72954.0,-3.57,-4.65,-4.85,0,*52
1507475309.96,29513,11.0,72962.0,-3.57,-4.65,-4.73,0,*5A